Change the Weather History Date:

Thursday, August 21, 2014

  Actual Average Record
Temperature  
Mean Temperature 79 °F 73 °F  
Max Temperature 87 °F 85 °F 90 °F (2003)
Min Temperature 70 °F 61 °F 51 °F (1999)
Degree Days  
Heating Degree Days 0 0  
Month to date heating degree days 1 0  
Since 1 June heating degree days 9 17  
Since 1 July heating degree days 6 2  
Cooling Degree Days 14 8  
Month to date cooling degree days 139 183  
Year to date cooling degree days 694 749  
Since 1 June cooling degree days 568 667  
Growing Degree Days 29 (Base 50)    
Moisture  
Dew Point 71 °F    
Average Humidity 80    
Maximum Humidity 94    
Minimum Humidity 65    
Precipitation  
Precipitation T in 0.12 in 0.45 in (2010)
Month to date precipitation 1.87 2.25  
Year to date precipitation 29.39 31.92  
Sea Level Pressure  
Sea Level Pressure 30.00 in    
Wind  
Wind Speed 5 mph (SW)    
Max Wind Speed 14 mph    
Max Gust Speed 19 mph    
Visibility 10 miles    
Events      
T = Trace of Precipitation, MM = Missing Value Source: NWS Daily Summary

Daily Weather History Graph

Daily Weather History Graph

Search for Another Location

Airport or City:

Trip Planner

Search our weather history database for the weather conditions in past years. The results will help you decide how hot, cold, wet, or windy it might be!

Date:

Astronomy

Aug. 21, 2014 Rise Set
Actual Time 7:05 AM EDT 8:33 PM EDT
Civil Twilight 6:36 AM EDT 9:01 PM EDT
Nautical Twilight 6:03 AM EDT 9:35 PM EDT
Astronomical Twilight 5:27 AM EDT 10:10 PM EDT
Moon 3:35 AM EDT (8/21) 6:01 PM EDT (8/21)
Length of Visible Light 14h 24m
Length of Day
13h 28m
Waning Crescent, 13% of the Moon is Illuminated
Aug 21
Waning Crescent
Aug 25
New
Sep 2
First Quarter
Sep 8
Full
Sep 15
Last Quarter

Hourly Weather History & Observations

Time (EDT) Temp. Heat Index Dew Point Humidity Pressure Visibility Wind Dir Wind Speed Gust Speed Precip Events Conditions
12:53 AM 73.0 °F - 68.0 °F 84% 30.00 in 10.0 mi South 5.8 mph - N/A   Clear
1:53 AM 72.0 °F - 68.0 °F 87% 30.00 in 10.0 mi Calm Calm - N/A   Clear
2:53 AM 72.0 °F - 68.0 °F 87% 30.00 in 10.0 mi WSW 6.9 mph - N/A   Partly Cloudy
3:53 AM 73.0 °F - 69.1 °F 87% 29.99 in 10.0 mi WSW 3.5 mph - N/A   Clear
4:53 AM 72.0 °F - 68.0 °F 87% 29.99 in 10.0 mi WSW 6.9 mph - N/A   Clear
5:53 AM 71.1 °F - 66.9 °F 87% 29.98 in 10.0 mi SSW 6.9 mph - N/A   Partly Cloudy
6:53 AM 71.1 °F - 66.9 °F 87% 29.98 in 10.0 mi South 4.6 mph - N/A   Partly Cloudy
7:53 AM 71.1 °F - 66.9 °F 87% 30.00 in 10.0 mi Variable 3.5 mph - N/A   Clear
8:53 AM 71.1 °F - 68.0 °F 90% 30.01 in 10.0 mi South 3.5 mph - N/A   Partly Cloudy
9:53 AM 77.0 °F - 71.1 °F 82% 30.01 in 10.0 mi SW 6.9 mph - N/A   Mostly Cloudy
10:53 AM 79.0 °F - 72.0 °F 79% 30.03 in 10.0 mi WSW 10.4 mph - N/A   Scattered Clouds
11:53 AM 82.0 °F 87.9 °F 73.9 °F 76% 30.04 in 10.0 mi WSW 10.4 mph - N/A   Partly Cloudy
12:53 PM 82.9 °F 88.8 °F 73.0 °F 72% 30.04 in 10.0 mi West 10.4 mph - N/A   Scattered Clouds
1:53 PM 82.9 °F 89.4 °F 73.9 °F 74% 30.04 in 10.0 mi WSW 4.6 mph - N/A   Partly Cloudy
2:53 PM 86.0 °F 95.1 °F 75.0 °F 70% 30.01 in 10.0 mi West 5.8 mph - 0.00 in   Scattered Clouds
3:53 PM 86.0 °F 93.8 °F 73.9 °F 67% 29.99 in 10.0 mi SW 8.1 mph - N/A   Partly Cloudy
4:53 PM 87.1 °F 96.3 °F 75.0 °F 67% 29.97 in 10.0 mi SSW 6.9 mph - N/A   Scattered Clouds
5:53 PM 84.9 °F 94.1 °F 75.9 °F 74% 29.97 in 10.0 mi SW 6.9 mph - N/A   Partly Cloudy
6:53 PM 84.9 °F 93.3 °F 75.0 °F 72% 29.96 in 10.0 mi SW 5.8 mph - N/A   Clear
7:53 PM 82.9 °F 90.2 °F 75.0 °F 77% 29.96 in 10.0 mi SW 4.6 mph - N/A   Clear
8:53 PM 79.0 °F - 75.0 °F 88% 29.96 in 9.0 mi Calm Calm - N/A   Clear
9:53 PM 75.0 °F - 73.0 °F 94% 29.97 in 7.0 mi SW 3.5 mph - N/A   Clear
11:53 PM 75.9 °F - 72.0 °F 87% 30.00 in 10.0 mi Calm Calm - N/A   Clear